User: anonymous   Login
Location: Ostrava
(49.8330°N, 18.2830°E)
Time: 09:08:22
(UTC+02:00)
Language:

NOAA 19 - Orbit

View from above orbital plane
View from above orbital plane
View from above satellite
View from above satellite

Ground track
Ground track

The orbit data is extracted from the following two-line orbital elements,

1 33591U 09005A   15143.50568524  .00000184  00000-0  12527-3 0  9997
2 33591 098.9880 093.3274 0012987 237.7807 122.2105 14.11935205324007
Epoch (UTC): 23 May 2015 12:08:11
Eccentricity: 0.0012987
inclination: 98.9880°
perigee height: 843 km
apogee height: 862 km
right ascension of ascending node: 93.3274°
argument of perigee: 237.7807°
revolutions per day: 14.11935205
mean anomaly at epoch: 122.2105°
orbit number at epoch: 32400

The dashed part of the orbit path shows where the satellite is in the earth's shadow,  

DLR